CCA1503 ZBAA-ZSNJ

Flight info

Callsign CCA1503
Flight time 1h 16m
Altitude 35100
Route K0806S1070 ELKUR2G ELKUR W40 YQG/K0811S1100 W142 DALIM/K0806S1070 A593 DPX A470 OF OF54F
Aircraft A321/M-SDE3FGHIRWY/LB1

Departure

Time 2026-04-25 16:54
Airport Beijing Capital International Airport (ZBAA)

Arrival

Time 2026-04-25 18:11
Airport Nanjing Lukou International Airport (ZSNJ)
Time Latitude Longitude Altitude Speed Heading
2026-04-25 16:20 40.05885 116.61002 124 ft 0 kts 243°
2026-04-25 16:33 40.05885 116.61003 124 ft 0 kts 243°
2026-04-25 16:39 40.05892 116.61023 120 ft 4 kts 251°
2026-04-25 16:39 40.05899 116.61057 120 ft 4 kts 261°
2026-04-25 16:40 40.05901 116.61091 120 ft 4 kts 277°
2026-04-25 16:40 40.05894 116.61124 121 ft 4 kts 306°
2026-04-25 16:40 40.05877 116.61142 121 ft 2 kts 352°
2026-04-25 16:40 40.05871 116.61143 118 ft 0 kts 353°
2026-04-25 16:44 40.05876 116.61143 118 ft 2 kts 353°
2026-04-25 16:44 40.05915 116.61136 120 ft 8 kts 353°
2026-04-25 16:44 40.05976 116.61127 119 ft 10 kts 353°
2026-04-25 16:44 40.06068 116.61112 123 ft 15 kts 353°
2026-04-25 16:45 40.06172 116.61096 124 ft 16 kts 353°
2026-04-25 16:45 40.06283 116.61079 122 ft 17 kts 353°
2026-04-25 16:45 40.06335 116.60990 122 ft 14 kts 264°
2026-04-25 16:45 40.06323 116.60856 122 ft 15 kts 263°
2026-04-25 16:46 40.06310 116.60713 124 ft 16 kts 263°
2026-04-25 16:46 40.06296 116.60561 124 ft 17 kts 263°
2026-04-25 16:46 40.06281 116.60401 124 ft 18 kts 263°
2026-04-25 16:46 40.06271 116.60291 124 ft 19 kts 263°
2026-04-25 16:47 40.06315 116.60130 124 ft 15 kts 354°
2026-04-25 16:47 40.06424 116.60113 121 ft 16 kts 353°
2026-04-25 16:47 40.06545 116.60094 121 ft 18 kts 353°
2026-04-25 16:47 40.06677 116.60072 123 ft 20 kts 353°
2026-04-25 16:48 40.06816 116.60052 122 ft 20 kts 353°
2026-04-25 16:48 40.06960 116.60029 122 ft 21 kts 353°
2026-04-25 16:48 40.07109 116.60005 121 ft 22 kts 353°
2026-04-25 16:48 40.07263 116.59982 121 ft 23 kts 353°
2026-04-25 16:49 40.07421 116.59957 124 ft 23 kts 353°
2026-04-25 16:49 40.07577 116.59932 120 ft 21 kts 353°
2026-04-25 16:49 40.07723 116.59910 121 ft 22 kts 353°
2026-04-25 16:49 40.07874 116.59887 122 ft 22 kts 353°
2026-04-25 16:50 40.08015 116.59863 122 ft 21 kts 353°
2026-04-25 16:50 40.08159 116.59842 123 ft 21 kts 353°
2026-04-25 16:50 40.08309 116.59818 123 ft 22 kts 353°
2026-04-25 16:50 40.08464 116.59793 121 ft 23 kts 353°
2026-04-25 16:51 40.08623 116.59769 123 ft 23 kts 353°
2026-04-25 16:51 40.08785 116.59743 123 ft 24 kts 353°
2026-04-25 16:51 40.08880 116.59727 122 ft 8 kts 344°
2026-04-25 16:51 40.08893 116.59687 124 ft 7 kts 270°
2026-04-25 16:52 40.08889 116.59660 123 ft 1 kts 262°
2026-04-25 16:52 40.08885 116.59627 122 ft 7 kts 262°
2026-04-25 16:52 40.08877 116.59545 124 ft 10 kts 258°
2026-04-25 16:52 40.08823 116.59504 122 ft 10 kts 176°
2026-04-25 16:53 40.08813 116.59505 124 ft 0 kts 175°
2026-04-25 16:53 40.08754 116.59513 123 ft 33 kts 174°
2026-04-25 16:53 40.08270 116.59590 122 ft 105 kts 173°
2026-04-25 16:54 40.07343 116.59735 123 ft 161 kts 173°
2026-04-25 16:54 40.06176 116.59924 620 ft 168 kts 173°
2026-04-25 16:54 40.05024 116.60100 1300 ft 166 kts 174°
2026-04-25 16:54 40.03886 116.60279 2043 ft 163 kts 175°
2026-04-25 16:55 40.02778 116.60458 2649 ft 159 kts 176°
2026-04-25 16:55 40.01677 116.60630 3178 ft 159 kts 176°
2026-04-25 16:55 40.00580 116.60803 3711 ft 159 kts 176°
2026-04-25 16:55 39.99484 116.60966 4228 ft 159 kts 175°
2026-04-25 16:56 39.98362 116.61139 4637 ft 168 kts 175°
2026-04-25 16:56 39.97133 116.61322 4879 ft 187 kts 175°
2026-04-25 16:56 39.95786 116.61527 5183 ft 203 kts 175°
2026-04-25 16:56 39.94313 116.61751 5365 ft 225 kts 175°
2026-04-25 16:57 39.92669 116.62007 5595 ft 250 kts 174°
2026-04-25 16:57 39.91492 116.62191 5784 ft 264 kts 174°
2026-04-25 16:57 39.88984 116.62582 6547 ft 275 kts 174°
2026-04-25 16:57 39.87069 116.62884 7255 ft 278 kts 174°
2026-04-25 16:58 39.85141 116.63190 7988 ft 281 kts 174°
2026-04-25 16:58 39.83192 116.63498 8728 ft 283 kts 175°
2026-04-25 16:58 39.81227 116.63800 9465 ft 286 kts 175°
2026-04-25 16:58 39.79314 116.64091 10120 ft 289 kts 175°
2026-04-25 16:59 39.77254 116.64402 10385 ft 309 kts 175°
2026-04-25 16:59 39.75035 116.64735 10516 ft 332 kts 175°
2026-04-25 16:59 39.72669 116.65094 10638 ft 353 kts 174°
2026-04-25 16:59 39.70161 116.65474 10755 ft 373 kts 174°
2026-04-25 17:00 39.67567 116.65868 11040 ft 385 kts 174°
2026-04-25 17:00 39.64852 116.66316 11604 ft 391 kts 173°
2026-04-25 17:00 39.62211 116.66900 12213 ft 394 kts 171°
2026-04-25 17:00 39.59510 116.67607 12851 ft 398 kts 169°
2026-04-25 17:01 39.56762 116.68384 13505 ft 401 kts 168°
2026-04-25 17:01 39.54122 116.69462 14063 ft 406 kts 159°
2026-04-25 17:01 39.51581 116.71122 14599 ft 412 kts 152°
2026-04-25 17:01 39.49075 116.72955 15143 ft 416 kts 152°
2026-04-25 17:02 39.46531 116.74773 15672 ft 420 kts 152°
2026-04-25 17:02 39.43956 116.76593 16193 ft 424 kts 152°
2026-04-25 17:02 39.41356 116.78424 16685 ft 428 kts 152°
2026-04-25 17:02 39.39585 116.79673 17012 ft 430 kts 152°
2026-04-25 17:03 39.36090 116.82150 17659 ft 435 kts 152°
2026-04-25 17:03 39.33389 116.83951 18130 ft 439 kts 157°
2026-04-25 17:03 39.30548 116.85417 18546 ft 441 kts 159°
2026-04-25 17:03 39.27678 116.86866 18978 ft 444 kts 159°
2026-04-25 17:04 39.24798 116.88320 19401 ft 446 kts 159°
2026-04-25 17:04 39.21900 116.89783 19829 ft 448 kts 159°
2026-04-25 17:04 39.18975 116.91202 20252 ft 450 kts 163°
2026-04-25 17:04 39.15922 116.92101 20671 ft 451 kts 173°
2026-04-25 17:05 39.12785 116.92328 21088 ft 452 kts 183°
2026-04-25 17:05 39.06640 116.90746 21882 ft 453 kts 202°
2026-04-25 17:05 39.03746 116.89118 22268 ft 455 kts 206°
2026-04-25 17:06 39.00849 116.87447 22650 ft 458 kts 206°
2026-04-25 17:06 38.97934 116.85780 23021 ft 460 kts 205°
2026-04-25 17:06 38.94997 116.84106 23393 ft 463 kts 205°
2026-04-25 17:06 38.92045 116.82429 23717 ft 465 kts 206°
2026-04-25 17:07 38.89077 116.80744 24040 ft 468 kts 206°
2026-04-25 17:07 38.86098 116.79049 24371 ft 470 kts 206°
2026-04-25 17:07 38.83105 116.77344 24702 ft 471 kts 206°
2026-04-25 17:07 38.80104 116.75634 25018 ft 473 kts 206°
2026-04-25 17:08 38.77102 116.73925 25457 ft 472 kts 206°
2026-04-25 17:08 38.74105 116.72223 25909 ft 470 kts 206°
2026-04-25 17:08 38.71119 116.70531 26353 ft 469 kts 206°
2026-04-25 17:08 38.68134 116.68846 26805 ft 468 kts 206°
2026-04-25 17:09 38.65107 116.67310 27229 ft 469 kts 200°
2026-04-25 17:09 38.61931 116.66324 27657 ft 472 kts 192°
2026-04-25 17:09 38.58656 116.65878 28093 ft 473 kts 187°
2026-04-25 17:09 38.55426 116.65523 28524 ft 472 kts 188°
2026-04-25 17:10 38.52157 116.65157 28959 ft 472 kts 188°
2026-04-25 17:10 38.48890 116.64783 29394 ft 471 kts 188°
2026-04-25 17:10 38.45629 116.64406 29817 ft 471 kts 188°
2026-04-25 17:10 38.42367 116.64026 30187 ft 470 kts 188°
2026-04-25 17:11 38.39110 116.63646 30527 ft 470 kts 188°
2026-04-25 17:11 38.35854 116.63266 30860 ft 470 kts 188°
2026-04-25 17:11 38.32590 116.62910 31191 ft 471 kts 186°
2026-04-25 17:11 38.29302 116.62987 31511 ft 475 kts 177°
2026-04-25 17:12 38.26032 116.63668 31832 ft 478 kts 168°
2026-04-25 17:12 38.22828 116.64837 32162 ft 479 kts 165°
2026-04-25 17:12 38.19636 116.66039 32507 ft 479 kts 165°
2026-04-25 17:12 38.16443 116.67230 32840 ft 478 kts 166°
2026-04-25 17:13 38.13250 116.68411 33177 ft 478 kts 166°
2026-04-25 17:13 38.12167 116.68809 33286 ft 478 kts 166°
2026-04-25 17:13 38.06870 116.70774 33849 ft 477 kts 165°
2026-04-25 17:13 38.03688 116.71983 34129 ft 477 kts 165°
2026-04-25 17:14 38.00514 116.73203 34397 ft 477 kts 165°
2026-04-25 17:14 37.97341 116.74424 34665 ft 476 kts 165°
2026-04-25 17:14 37.94174 116.75638 34908 ft 476 kts 165°
2026-04-25 17:14 37.90992 116.76849 34973 ft 478 kts 165°
2026-04-25 17:15 37.84596 116.79270 34989 ft 480 kts 165°
2026-04-25 17:15 37.78189 116.81694 34990 ft 481 kts 165°
2026-04-25 17:16 37.71776 116.84120 35000 ft 481 kts 165°
2026-04-25 17:16 37.65364 116.86546 34995 ft 481 kts 166°
2026-04-25 17:17 37.58989 116.88954 35002 ft 482 kts 166°
2026-04-25 17:17 37.52561 116.91368 35000 ft 482 kts 166°
2026-04-25 17:18 37.46124 116.93787 35007 ft 483 kts 166°
2026-04-25 17:18 37.39680 116.96195 35014 ft 483 kts 166°
2026-04-25 17:19 37.33226 116.98601 35017 ft 484 kts 166°
2026-04-25 17:19 37.26786 117.01098 35019 ft 485 kts 163°
2026-04-25 17:20 37.20452 117.04052 35027 ft 486 kts 161°
2026-04-25 17:20 37.14156 117.07171 35025 ft 486 kts 161°
2026-04-25 17:21 37.07837 117.10200 35033 ft 486 kts 162°
2026-04-25 17:21 37.01495 117.13143 35031 ft 486 kts 162°
2026-04-25 17:22 36.97251 117.15093 35033 ft 486 kts 162°
2026-04-25 17:22 36.88814 117.18987 35033 ft 485 kts 162°
2026-04-25 17:23 36.82361 117.21275 35036 ft 480 kts 175°
2026-04-25 17:23 36.75736 117.21556 35039 ft 476 kts 184°
2026-04-25 17:24 36.69116 117.21491 35048 ft 476 kts 184°
2026-04-25 17:24 36.62539 117.21438 35048 ft 476 kts 184°
2026-04-25 17:25 36.55914 117.21400 35064 ft 476 kts 184°
2026-04-25 17:25 36.49287 117.21360 35064 ft 476 kts 184°
2026-04-25 17:26 36.42659 117.21490 35067 ft 479 kts 176°
2026-04-25 17:26 36.36152 117.23400 35068 ft 483 kts 166°
2026-04-25 17:27 36.29711 117.25806 35075 ft 484 kts 166°
2026-04-25 17:27 36.25396 117.27401 35082 ft 484 kts 166°
2026-04-25 17:28 36.16798 117.30579 35083 ft 485 kts 166°
2026-04-25 17:28 36.10335 117.32977 35083 ft 485 kts 166°
2026-04-25 17:29 36.03868 117.35372 35084 ft 485 kts 166°
2026-04-25 17:29 35.97393 117.37765 35081 ft 486 kts 166°
2026-04-25 17:30 35.90921 117.40189 35082 ft 487 kts 166°
2026-04-25 17:30 35.84439 117.42628 35081 ft 487 kts 166°
2026-04-25 17:31 35.79043 117.44646 35086 ft 488 kts 166°
2026-04-25 17:31 35.72546 117.47057 35089 ft 488 kts 166°
2026-04-25 17:32 35.66040 117.49480 35091 ft 489 kts 166°
2026-04-25 17:32 35.59523 117.51905 35090 ft 489 kts 166°
2026-04-25 17:33 35.53002 117.54317 35095 ft 490 kts 166°
2026-04-25 17:33 35.46478 117.56730 35095 ft 490 kts 166°
2026-04-25 17:34 35.39948 117.59152 35099 ft 490 kts 166°
2026-04-25 17:34 35.33409 117.61570 35098 ft 491 kts 166°
2026-04-25 17:35 35.26820 117.63991 35107 ft 500 kts 166°
2026-04-25 17:35 35.20057 117.66468 35105 ft 514 kts 165°
2026-04-25 17:36 35.13179 117.68991 35106 ft 517 kts 165°
2026-04-25 17:36 35.06280 117.71529 35111 ft 518 kts 165°
2026-04-25 17:37 34.99377 117.74063 35108 ft 518 kts 165°
2026-04-25 17:37 34.92467 117.76593 35110 ft 518 kts 165°
2026-04-25 17:38 34.86727 117.78688 35109 ft 518 kts 165°
2026-04-25 17:38 34.78651 117.81633 35113 ft 519 kts 165°
2026-04-25 17:39 34.71726 117.84137 35116 ft 519 kts 165°
2026-04-25 17:39 34.64798 117.86618 35125 ft 519 kts 165°
2026-04-25 17:40 34.57869 117.89098 35122 ft 519 kts 165°
2026-04-25 17:40 34.50941 117.91579 35119 ft 520 kts 165°
2026-04-25 17:41 34.44002 117.94061 35130 ft 520 kts 165°
2026-04-25 17:41 34.37110 117.96522 35118 ft 520 kts 165°
2026-04-25 17:42 34.30170 117.99003 35124 ft 520 kts 165°
2026-04-25 17:42 34.23224 118.01485 35131 ft 521 kts 165°
2026-04-25 17:43 34.16284 118.04017 35131 ft 521 kts 164°
2026-04-25 17:43 34.09348 118.06559 35133 ft 521 kts 164°
2026-04-25 17:44 34.02401 118.09086 35130 ft 521 kts 164°
2026-04-25 17:44 33.95453 118.11606 35127 ft 521 kts 164°
2026-04-25 17:45 33.89680 118.13710 35127 ft 521 kts 164°
2026-04-25 17:45 33.81566 118.16663 35126 ft 521 kts 164°
2026-04-25 17:46 33.74628 118.19184 35124 ft 521 kts 164°
2026-04-25 17:46 33.67685 118.21709 35121 ft 521 kts 164°
2026-04-25 17:47 33.60749 118.24238 35123 ft 521 kts 164°
2026-04-25 17:47 33.53804 118.26753 35120 ft 521 kts 164°
2026-04-25 17:48 33.46855 118.29257 34846 ft 522 kts 163°
2026-04-25 17:48 33.43375 118.30513 34412 ft 523 kts 163°
2026-04-25 17:48 33.39884 118.31775 33936 ft 525 kts 163°
2026-04-25 17:49 33.36382 118.33043 33394 ft 527 kts 163°
2026-04-25 17:49 33.32873 118.34316 32865 ft 527 kts 163°
2026-04-25 17:49 33.29432 118.35563 32352 ft 527 kts 163°
2026-04-25 17:49 33.25927 118.36832 31841 ft 526 kts 163°
2026-04-25 17:50 33.22428 118.38098 31336 ft 526 kts 163°
2026-04-25 17:50 33.18976 118.39341 30848 ft 525 kts 163°
2026-04-25 17:50 33.15480 118.40595 30373 ft 524 kts 164°
2026-04-25 17:50 33.11988 118.41847 29854 ft 524 kts 164°
2026-04-25 17:51 33.08497 118.43100 29297 ft 523 kts 164°
2026-04-25 17:51 33.05012 118.44354 28749 ft 523 kts 164°
2026-04-25 17:51 33.01529 118.45606 28211 ft 523 kts 164°
2026-04-25 17:51 32.98047 118.46857 27688 ft 522 kts 163°
2026-04-25 17:52 32.94569 118.48106 27172 ft 522 kts 164°
2026-04-25 17:52 32.92222 118.48946 26824 ft 522 kts 164°
2026-04-25 17:52 32.87617 118.50596 26162 ft 522 kts 163°
2026-04-25 17:52 32.84140 118.51840 25672 ft 521 kts 164°
2026-04-25 17:53 32.80666 118.53077 25171 ft 521 kts 164°
2026-04-25 17:53 32.77198 118.54312 24720 ft 521 kts 164°
2026-04-25 17:53 32.73728 118.55546 24257 ft 519 kts 164°
2026-04-25 17:53 32.70276 118.56774 23797 ft 516 kts 164°
2026-04-25 17:54 32.66853 118.57994 23294 ft 512 kts 163°
2026-04-25 17:54 32.63451 118.59187 22755 ft 507 kts 164°
2026-04-25 17:54 32.60074 118.60340 22231 ft 503 kts 164°
2026-04-25 17:54 32.56717 118.61465 21713 ft 499 kts 165°
2026-04-25 17:55 32.53384 118.62575 21204 ft 495 kts 165°
2026-04-25 17:55 32.50081 118.63680 20706 ft 491 kts 164°
2026-04-25 17:55 32.46805 118.64782 20210 ft 488 kts 164°
2026-04-25 17:55 32.43554 118.65879 19734 ft 484 kts 164°
2026-04-25 17:56 32.40328 118.66967 19255 ft 481 kts 164°
2026-04-25 17:56 32.37121 118.68049 18788 ft 477 kts 164°
2026-04-25 17:56 32.33945 118.69122 18326 ft 474 kts 164°
2026-04-25 17:56 32.30784 118.70189 17802 ft 470 kts 164°
2026-04-25 17:57 32.27658 118.71245 17277 ft 466 kts 164°
2026-04-25 17:57 32.24559 118.72293 16758 ft 461 kts 164°
2026-04-25 17:57 32.21482 118.73331 16260 ft 457 kts 164°
2026-04-25 17:57 32.20492 118.73664 16096 ft 456 kts 164°
2026-04-25 17:58 32.15460 118.75355 15274 ft 449 kts 164°
2026-04-25 17:58 32.12472 118.76354 14777 ft 445 kts 165°
2026-04-25 17:58 32.09506 118.77346 14318 ft 440 kts 165°
2026-04-25 17:58 32.06577 118.78328 13856 ft 435 kts 165°
2026-04-25 17:59 32.03688 118.79299 13334 ft 429 kts 165°
2026-04-25 17:59 32.00841 118.80252 12819 ft 422 kts 165°
2026-04-25 17:59 31.98034 118.81188 12312 ft 416 kts 165°
2026-04-25 17:59 31.95324 118.82074 11797 ft 390 kts 165°
2026-04-25 18:00 31.92800 118.82880 11311 ft 364 kts 166°
2026-04-25 18:00 31.90483 118.83783 10978 ft 337 kts 152°
2026-04-25 18:00 31.88733 118.85414 10807 ft 313 kts 127°
2026-04-25 18:00 31.87721 118.87611 10559 ft 297 kts 103°
2026-04-25 18:01 31.87519 118.89943 10131 ft 281 kts 81°
2026-04-25 18:01 31.88039 118.92096 9633 ft 271 kts 59°
2026-04-25 18:01 31.89012 118.93968 9127 ft 266 kts 55°
2026-04-25 18:01 31.89977 118.95768 8678 ft 257 kts 55°
2026-04-25 18:02 31.90924 118.97549 8238 ft 257 kts 55°
2026-04-25 18:02 31.91869 118.99327 7783 ft 256 kts 56°
2026-04-25 18:02 31.92810 119.01101 7350 ft 255 kts 56°
2026-04-25 18:02 31.93736 119.02865 6973 ft 251 kts 59°
2026-04-25 18:03 31.94146 119.04826 6603 ft 250 kts 95°
2026-04-25 18:03 31.93473 119.06662 6234 ft 246 kts 134°
2026-04-25 18:03 31.92126 119.07862 5878 ft 241 kts 148°
2026-04-25 18:03 31.90708 119.08889 5489 ft 238 kts 151°
2026-04-25 18:04 31.89289 119.09873 5136 ft 235 kts 152°
2026-04-25 18:04 31.87884 119.10790 4848 ft 225 kts 161°
2026-04-25 18:04 31.86414 119.10983 4573 ft 205 kts 192°
2026-04-25 18:04 31.85175 119.10365 4364 ft 189 kts 219°
2026-04-25 18:05 31.84331 119.09220 4163 ft 185 kts 239°
2026-04-25 18:05 31.83679 119.07987 3943 ft 171 kts 239°
2026-04-25 18:05 31.83098 119.06888 3735 ft 149 kts 238°
2026-04-25 18:05 31.82561 119.05874 3535 ft 145 kts 238°
2026-04-25 18:06 31.82030 119.04872 3345 ft 144 kts 238°
2026-04-25 18:06 31.81499 119.03872 3159 ft 145 kts 237°
2026-04-25 18:06 31.80966 119.02868 2958 ft 145 kts 237°
2026-04-25 18:06 31.80432 119.01864 2781 ft 145 kts 237°
2026-04-25 18:07 31.79896 119.00855 2585 ft 145 kts 237°
2026-04-25 18:07 31.79360 118.99846 2389 ft 146 kts 237°
2026-04-25 18:07 31.78823 118.98837 2191 ft 146 kts 236°
2026-04-25 18:07 31.78287 118.97828 2007 ft 145 kts 236°
2026-04-25 18:08 31.77751 118.96821 1814 ft 145 kts 236°
2026-04-25 18:08 31.77216 118.95815 1619 ft 145 kts 236°
2026-04-25 18:08 31.76680 118.94808 1429 ft 145 kts 236°
2026-04-25 18:08 31.76144 118.93802 1231 ft 145 kts 236°
2026-04-25 18:09 31.75608 118.92796 1039 ft 145 kts 236°
2026-04-25 18:09 31.75073 118.91792 833 ft 145 kts 237°
2026-04-25 18:09 31.74540 118.90792 635 ft 144 kts 237°
2026-04-25 18:09 31.74360 118.90454 563 ft 144 kts 237°
2026-04-25 18:10 31.73482 118.88802 265 ft 143 kts 238°
2026-04-25 18:10 31.72954 118.87813 70 ft 143 kts 238°
2026-04-25 18:10 31.72494 118.86953 58 ft 101 kts 238°
2026-04-25 18:10 31.72212 118.86426 54 ft 51 kts 237°
2026-04-25 18:11 31.72112 118.86160 57 ft 33 kts 259°
2026-04-25 18:11 31.72101 118.86008 54 ft 14 kts 266°
2026-04-25 18:11 31.72163 118.85932 55 ft 14 kts 327°
2026-04-25 18:11 31.72245 118.85933 52 ft 14 kts 49°
2026-04-25 18:12 31.72300 118.86033 54 ft 15 kts 58°
2026-04-25 18:12 31.72359 118.86143 54 ft 17 kts 58°
2026-04-25 18:12 31.72424 118.86264 52 ft 18 kts 58°
2026-04-25 18:12 31.72495 118.86397 55 ft 20 kts 57°
2026-04-25 18:13 31.72572 118.86540 53 ft 21 kts 58°
2026-04-25 18:13 31.72651 118.86665 58 ft 15 kts 20°
2026-04-25 18:13 31.72748 118.86611 54 ft 16 kts 328°
2026-04-25 18:14 31.72936 118.86471 56 ft 16 kts 328°
2026-04-25 18:14 31.73026 118.86423 54 ft 10 kts 22°
2026-04-25 18:14 31.73087 118.86465 53 ft 11 kts 346°
2026-04-25 18:14 31.73155 118.86415 52 ft 13 kts 328°
2026-04-25 18:15 31.73232 118.86409 57 ft 12 kts 51°
2026-04-25 18:15 31.73306 118.86456 56 ft 13 kts 354°
2026-04-25 18:15 31.73391 118.86400 52 ft 15 kts 328°
2026-04-25 18:15 31.73480 118.86334 52 ft 12 kts 332°
2026-04-25 18:16 31.73528 118.86360 58 ft 8 kts 60°
2026-04-25 18:16 31.73544 118.86409 55 ft 4 kts 70°
2026-04-25 18:16 31.73547 118.86419 54 ft 0 kts 70°